CAPE
0 0 0 0 0 0 1 0 13 61 1 14 27 51 117 188 41 7 409 585 279 258 520 1269 1693 1477 1180 1046 655 341 89 0 0 0 0 0 0 0 1 3 3 2 4 4 4 3 4 4 3
0 0 0 0 0 1 0 0 0 77 15 324 421 707 698 709 545 1029 714 557 300 433 868 1098 1375 1185 1025 734 315 42 0 0 0 0 0 0 0 1 1 1 2 2 2 0 0 0 1 1 0
0 0 0 0 0 0 0 0 12 81 62 74 872 1134 934 752 922 816 783 491 367 668 918 819 1216 1372 591 375 55 0 0 0 0 0 0 0 0 0 0 0 0 0 0 0 0 0 0 0 0
0 0 0 0 0 0 0 0 35 69 84 110 825 1023 912 653 860 990 690 490 520 844 737 995 1283 1000 548 88 0 0 0 0 0 0 0 0 0 0 0 0 0 0 0 0 0 0 0 0 0
3 0 0 0 0 0 0 0 0 54 162 510 1077 948 975 888 1202 937 755 490 621 731 747 873 1284 804 155 0 0 0 0 0 0 0 0 0 0 0 0 0 0 0 0 0 0 0 0 0 0
12 0 0 0 0 0 0 0 0 0 73 235 1098 984 885 1192 1049 990 728 420 651 671 784 957 765 443 55 0 0 0 0 0 0 0 0 0 0 0 0 0 0 0 0 0 0 0 0 0 0
11 9 0 0 0 0 0 0 0 0 22 59 1002 973 902 1227 1092 1083 821 493 552 610 841 574 191 13 0 0 0 0 0 0 0 0 0 0 0 0 0 0 0 0 0 0 0 0 0 0 0
79 34 6 0 0 0 0 0 0 0 0 231 1148 924 908 1318 1291 1182 997 662 453 695 562 317 114 9 0 0 0 0 0 0 0 0 0 0 0 0 0 0 0 0 0 0 0 0 0 0 0
165 7 3 6 1 0 0 0 0 0 0 84 985 1017 942 1142 1244 1050 839 567 493 602 428 499 100 0 0 0 0 0 0 0 0 0 0 0 0 0 0 0 0 0 0 0 0 0 0 0 0
45 16 7 0 0 0 0 0 0 0 0 270 1028 1033 928 993 953 858 701 690 932 396 249 799 123 0 0 0 0 0 0 0 0 0 0 0 0 0 0 0 0 0 0 0 0 0 0 0 0
17 10 1 0 0 0 0 0 0 0 9 31 63 930 811 847 822 794 690 519 458 284 461 560 50 0 0 0 0 0 0 0 0 0 0 0 0 0 0 0 0 0 0 0 0 0 0 0 0
15 10 0 0 0 0 0 0 0 0 3 2 47 576 827 585 649 730 659 593 542 326 386 280 14 0 0 0 0 0 0 0 0 0 0 0 0 0 0 0 0 0 0 0 0 0 0 0 0
3 0 1 0 0 0 0 0 0 0 0 2 37 280 502 482 408 598 578 530 628 278 377 264 23 0 0 0 0 0 0 0 0 0 0 0 0 0 0 0 0 0 0 0 0 0 0 0 0
0 0 0 0 0 0 0 0 0 0 0 10 54 23 62 92 64 570 462 455 370 348 316 120 36 0 0 0 0 0 0 0 0 0 0 0 0 0 0 0 0 0 0 0 0 0 0 0 0
0 0 0 0 0 0 0 0 0 0 0 35 35 26 20 11 0 86 583 481 367 445 185 78 41 0 0 0 0 0 0 0 0 0 0 0 0 0 0 0 0 0 0 0 0 0 0 0 0
0 0 0 0 0 0 0 0 0 0 0 18 40 24 35 99 46 337 621 467 393 469 345 80 93 5 0 0 0 0 0 0 0 0 0 0 0 0 0 0 0 0 0 0 0 0 0 0 0
0 2 0 0 0 0 0 0 0 0 0 0 35 57 167 239 210 487 509 422 340 496 404 238 103 75 0 0 0 0 0 0 0 0 0 0 0 0 0 0 0 0 0 0 0 0 0 0 0
0 1 0 0 0 0 0 0 0 0 0 0 1 37 2 231 186 38 9 252 259 553 464 341 205 67 0 0 0 0 0 0 0 0 0 0 0 0 0 0 0 0 0 0 0 0 0 0 0
0 0 0 0 0 0 0 0 0 0 0 0 0 2 4 106 123 17 0 35 154 383 317 193 315 62 0 0 0 0 0 0 0 0 0 0 0 0 0 0 0 0 0 0 0 0 0 0 0
0 0 0 0 0 0 0 0 0 0 0 0 0 0 0 75 121 70 81 187 217 249 301 162 156 115 0 0 0 0 0 0 0 0 0 0 0 0 0 0 0 0 0 0 0 0 0 0 0
0 0 0 0 0 0 0 0 0 0 0 0 0 0 0 19 144 70 20 118 211 42 237 170 156 211 31 0 0 0 0 0 0 0 0 0 0 0 0 0 0 0 0 0 0 0 0 0 0
0 0 0 0 0 0 0 0 0 0 0 0 0 0 2 26 149 82 34 7 22 68 196 233 149 274 51 0 0 0 0 0 0 4 0 0 0 0 0 0 0 0 0 0 0 0 0 0 0
0 0 0 0 0 0 0 0 0 0 0 0 0 0 0 0 245 226 112 5 2 68 31 199 239 175 69 4 23 82 47 20 8 1 0 0 0 0 0 0 0 0 0 0 0 0 0 0 0
0 0 0 0 0 0 0 0 0 0 0 0 0 0 3 78 175 160 145 108 100 103 59 22 116 143 17 128 66 34 47 23 10 4 0 0 0 0 0 0 0 0 0 0 0 0 0 0 0
0 0 0 0 0 0 0 0 0 0 0 0 0 0 1 193 279 197 160 89 97 130 49 3 29 57 28 32 77 37 41 2 0 1 0 0 0 0 0 0 0 0 0 0 0 0 0 0 0
0 0 0 0 0 0 0 0 0 0 0 0 3 0 227 347 210 149 173 125 112 46 0 0 0 25 47 23 17 25 26 11 31 6 0 0 0 0 0 0 0 0 0 0 0 0 0 0 0
0 0 0 0 0 0 0 0 0 0 2 0 28 201 364 282 156 115 154 230 117 78 84 10 18 6 0 1 31 53 43 45 22 17 0 0 0 0 0 0 0 0 0 0 0 0 0 0 0
0 0 0 0 0 0 0 0 0 0 0 0 0 333 367 271 151 208 141 197 134 119 203 47 24 35 66 127 105 48 14 58 40 5 0 0 0 0 0 0 0 0 0 0 0 0 0 0 0
0 0 0 0 0 0 0 0 0 0 0 0 0 132 272 247 153 109 236 170 115 84 106 80 89 82 67 118 140 111 68 73 47 0 0 0 0 0 0 0 0 0 0 0 0 0 0 0 0
0 0 0 0 0 0 0 0 0 0 0 0 0 76 230 215 97 72 94 196 105 56 38 41 57 52 103 102 101 47 34 42 0 0 0 0 0 0 0 0 0 0 0 0 0 0 0 0 0
CIN
0 0 0 0 0 0 0 0 -190 -82 -86 -20 -56 -43 -71 -118 -107 -113 -334 -242 -343 -330 -143 -2 0 0 0 0 -7 -77 -249 0 0 0 0 0 0 0 0 0 0 0 0 0 0 0 0 0 0
0 0 0 0 0 0 0 0 0 -162 -80 -80 -88 -169 -216 -234 -366 -261 -261 -225 -250 -232 -57 -13 -1 0 0 -4 -121 -344 0 0 0 0 0 0 0 0 0 0 0 0 0 0 0 0 0 0 0
0 0 0 0 0 0 0 0 -53 -177 -85 -26 -73 -185 -217 -281 -302 -298 -265 -266 -235 -135 -54 -39 -1 0 -40 -116 -350 0 0 0 0 0 0 0 0 0 0 0 0 0 0 0 0 0 0 0 0
0 0 0 0 0 0 0 0 -92 -71 -110 -43 -120 -128 -197 -301 -318 -281 -233 -233 -221 -81 -72 -13 0 0 -59 -329 0 0 0 0 0 0 0 0 0 0 0 0 0 0 0 0 0 0 0 0 0
-31 0 0 0 0 0 0 0 0 -26 -41 -34 -87 -163 -158 -240 -210 -244 -197 -216 -191 -84 -62 -26 0 -5 -259 0 0 0 0 0 0 0 0 0 0 0 0 0 0 0 0 0 0 0 0 0 0
-47 0 0 0 0 0 0 0 0 0 -14 -63 -65 -124 -127 -158 -219 -201 -182 -190 -163 -93 -51 -18 -23 -89 -339 0 0 0 0 0 0 0 0 0 0 0 0 0 0 0 0 0 0 0 0 0 0
-77 -5 0 0 0 0 0 0 0 0 -4 -19 -71 -125 -94 -85 -138 -185 -126 -194 -154 -88 -30 -71 -183 -400 -22 0 0 0 0 0 0 0 0 0 0 0 0 0 0 0 0 0 0 0 0 0 0
-57 -65 -3 0 0 0 0 0 0 0 0 -106 -45 -102 -85 -75 -77 -126 -75 -84 -144 -47 -80 -142 -237 -157 0 0 0 0 0 0 0 0 0 0 0 0 0 0 0 0 0 0 0 0 0 0 0
-12 -5 -1 0 0 0 0 0 0 0 0 -90 -34 -52 -140 -52 -66 -75 -85 -98 -95 -70 -98 -57 -230 0 0 0 0 0 0 0 0 0 0 0 0 0 0 0 0 0 0 0 0 0 0 0 0
-76 -8 -3 0 0 0 0 0 0 0 0 -66 -39 -101 -95 -4 -56 -80 -118 -105 -61 -148 -170 -3 -209 0 0 0 0 0 0 0 0 0 0 0 0 0 0 0 0 0 0 0 0 0 0 0 0
-4 -2 -3 0 0 0 0 0 0 0 -28 -33 -32 -86 -82 -26 -39 -64 -79 -157 -155 -156 -98 -37 -253 0 0 0 0 0 0 0 0 0 0 0 0 0 0 0 0 0 0 0 0 0 0 0 0
-18 -17 0 0 0 0 0 0 0 0 -2 -14 -15 -33 -62 -23 -22 -74 -86 -102 -103 -131 -89 -79 -205 0 0 0 0 0 0 0 0 0 0 0 0 0 0 0 0 0 0 0 0 0 0 0 0
-5 0 -10 0 0 0 0 0 0 0 0 -11 -10 -28 -26 -39 0 -6 -54 -69 -47 -112 -76 -93 -300 0 0 0 0 0 0 0 0 0 0 0 0 0 0 0 0 0 0 0 0 0 0 0 0
0 0 0 0 0 0 0 0 0 0 0 -1 0 -43 -11 -43 -32 0 -10 -39 -41 -71 -67 -100 -227 0 0 0 0 0 0 0 0 0 0 0 0 0 0 0 0 0 0 0 0 0 0 0 0
0 0 0 0 0 0 0 0 0 0 0 -1 0 -6 -23 -21 -15 0 -19 -37 -59 -41 -63 -76 -127 0 0 0 0 0 0 0 0 0 0 0 0 0 0 0 0 0 0 0 0 0 0 0 0
0 0 0 0 0 0 0 0 0 0 0 -7 0 -36 -39 -65 -28 -3 -6 -47 -35 -30 -46 -74 -94 -90 0 0 0 0 0 0 0 0 0 0 0 0 0 0 0 0 0 0 0 0 0 0 0
0 -12 0 0 0 0 0 0 0 0 0 0 -2 -1 -50 -30 -28 -7 -29 -25 -34 -18 -29 -25 -52 -87 0 0 0 0 0 0 0 0 0 0 0 0 0 0 0 0 0 0 0 0 0 0 0
0 0 0 0 0 -4 0 0 0 0 0 0 -1 0 -18 -56 -37 -59 -28 0 -20 -3 -3 -3 -14 -35 0 0 0 0 0 0 0 0 0 0 0 0 0 0 0 0 0 0 0 0 0 0 0
0 0 0 0 0 0 0 0 0 0 0 0 0 -6 -6 -93 -82 -12 0 0 -1 0 -2 -6 -7 -59 0 0 0 0 0 0 0 0 0 0 0 0 0 0 0 0 0 0 0 0 0 0 0
0 0 0 0 0 0 0 0 0 0 0 0 0 0 0 -104 -35 -24 -15 -1 -1 0 -1 -2 -3 -4 -5 0 0 0 0 0 0 0 0 0 0 0 0 0 0 0 0 0 0 0 0 0 0
0 0 0 0 0 0 0 0 0 0 0 0 0 0 0 0 -53 -34 -35 -7 0 -4 0 -1 -2 -1 -34 0 0 0 0 0 0 0 0 0 0 0 0 0 0 0 0 0 0 0 0 0 0
0 0 0 0 0 0 0 0 0 0 0 0 0 0 -5 -169 -90 -12 -87 -9 -17 -1 -1 0 -4 -1 -19 0 0 0 0 0 0 -44 0 0 0 0 0 0 0 0 0 0 0 0 0 0 0
0 0 0 0 0 0 0 0 0 0 0 0 0 0 0 0 -77 -72 -44 -2 -16 -2 0 0 0 0 0 -6 -13 -6 -44 -60 -44 -17 0 0 0 0 0 0 0 0 0 0 0 0 0 0 0
0 0 0 0 0 0 0 0 0 0 0 0 0 0 -16 -223 -69 -79 -55 -41 -19 -13 -4 0 0 0 -1 0 -6 -3 -8 -11 -1 -2 0 0 0 0 0 0 0 0 0 0 0 0 0 0 0
0 0 0 0 0 0 0 0 0 0 0 0 0 0 -3 -156 -50 -70 -57 -19 -29 -1 -3 -6 -2 0 0 -1 -1 -5 -6 0 0 -6 0 0 -1 0 0 0 0 0 0 0 0 0 0 0 0
0 0 0 0 0 0 0 0 0 0 0 0 -47 0 -165 -95 -63 -62 -60 -34 -1 -6 -1 0 0 -1 -2 0 0 0 -1 -2 -1 0 0 0 0 0 0 0 0 0 0 0 0 0 0 0 0
0 0 0 0 0 0 0 0 0 -13 -87 0 -115 -189 -114 -105 -65 -39 -45 -1 -5 -6 -1 -3 -13 -10 0 -5 -2 0 -1 -4 -9 0 0 0 0 0 0 0 0 0 0 0 0 0 0 0 0
0 0 0 0 0 0 0 0 0 0 0 0 0 -121 -91 -115 -72 -6 -21 0 0 0 -4 0 -1 -1 -2 0 -6 -8 -13 -2 -1 -17 0 0 0 0 0 0 0 0 0 0 0 0 0 0 0
0 0 0 0 0 0 0 0 0 0 0 0 0 -196 -90 -102 -137 -75 0 0 0 0 0 0 0 0 0 0 0 -4 -8 -21 -1 0 0 0 0 0 0 0 0 0 0 0 0 0 0 0 0
0 0 0 0 0 0 0 0 0 0 0 0 0 -219 -106 -68 -60 -46 -53 -6 -1 -10 -6 -3 0 0 0 -4 -1 -13 -34 -29 0 0 0 0 0 0 0 0 0 0 0 0 0 0 0 0 0
Wind_Speed
nan nan nan nan nan nan nan nan nan nan nan nan nan nan 30 29 nan nan 21 21 25 21 17 15 20 20 17 16 15 15 nan nan nan nan nan nan nan nan nan nan nan nan nan nan nan nan nan nan nan
nan nan nan nan nan nan nan nan nan nan nan 44 41 39 37 29 22 21 25 24 25 21 20 19 24 20 18 16 15 nan nan nan nan nan nan nan nan nan nan nan nan nan nan nan nan nan nan nan nan
nan nan nan nan nan nan nan nan nan nan nan nan 43 45 36 28 28 21 26 28 27 23 21 23 23 20 17 16 nan nan nan nan nan nan nan nan nan nan nan nan nan nan nan nan nan nan nan nan nan
nan nan nan nan nan nan nan nan nan nan nan 38 44 48 38 30 23 25 35 29 29 25 22 24 21 20 17 nan nan nan nan nan nan nan nan nan nan nan nan nan nan nan nan nan nan nan nan nan nan
nan nan nan nan nan nan nan nan nan nan 47 45 42 42 40 35 30 31 27 27 30 26 23 22 22 22 17 nan nan nan nan nan nan nan nan nan nan nan nan nan nan nan nan nan nan nan nan nan nan
nan nan nan nan nan nan nan nan nan nan nan 51 47 44 41 33 38 30 26 25 26 25 23 23 23 22 nan nan nan nan nan nan nan nan nan nan nan nan nan nan nan nan nan nan nan nan nan nan nan
nan nan nan nan nan nan nan nan nan nan nan nan 51 51 43 39 36 35 33 28 27 25 25 27 26 nan nan nan nan nan nan nan nan nan nan nan nan nan nan nan nan nan nan nan nan nan nan nan nan
nan nan nan nan nan nan nan nan nan nan nan 51 48 48 34 33 37 38 38 33 28 27 28 28 30 nan nan nan nan nan nan nan nan nan nan nan nan nan nan nan nan nan nan nan nan nan nan nan nan
30 nan nan nan nan nan nan nan nan nan nan nan 49 48 41 44 46 39 38 38 29 28 31 32 30 nan nan nan nan nan nan nan nan nan nan nan nan nan nan nan nan nan nan nan nan nan nan nan nan
nan nan nan nan nan nan nan nan nan nan nan 62 57 54 44 47 47 39 32 37 29 26 29 31 31 nan nan nan nan nan nan nan nan nan nan nan nan nan nan nan nan nan nan nan nan nan nan nan nan
nan nan nan nan nan nan nan nan nan nan nan nan nan 50 48 42 43 41 37 37 29 30 32 32 nan nan nan nan nan nan nan nan nan nan nan nan nan nan nan nan nan nan nan nan nan nan nan nan nan
nan nan nan nan nan nan nan nan nan nan nan nan nan 51 58 50 32 40 40 37 34 31 29 33 nan nan nan nan nan nan nan nan nan nan nan nan nan nan nan nan nan nan nan nan nan nan nan nan nan
nan nan nan nan nan nan nan nan nan nan nan nan nan 56 57 44 50 42 52 44 37 33 33 32 nan nan nan nan nan nan nan nan nan nan nan nan nan nan nan nan nan nan nan nan nan nan nan nan nan
nan nan nan nan nan nan nan nan nan nan nan nan nan nan nan nan nan 57 52 50 40 35 33 34 nan nan nan nan nan nan nan nan nan nan nan nan nan nan nan nan nan nan nan nan nan nan nan nan nan
nan nan nan nan nan nan nan nan nan nan nan nan nan nan nan nan nan nan 46 50 44 37 36 nan nan nan nan nan nan nan nan nan nan nan nan nan nan nan nan nan nan nan nan nan nan nan nan nan nan
nan nan nan nan nan nan nan nan nan nan nan nan nan nan nan nan nan 21 44 49 47 41 36 nan nan nan nan nan nan nan nan nan nan nan nan nan nan nan nan nan nan nan nan nan nan nan nan nan nan
nan nan nan nan nan nan nan nan nan nan nan nan nan nan 52 52 46 31 39 59 54 44 40 39 42 nan nan nan nan nan nan nan nan nan nan nan nan nan nan nan nan nan nan nan nan nan nan nan nan
nan nan nan nan nan nan nan nan nan nan nan nan nan nan nan 55 48 nan nan 46 54 55 47 44 46 nan nan nan nan nan nan nan nan nan nan nan nan nan nan nan nan nan nan nan nan nan nan nan nan
nan nan nan nan nan nan nan nan nan nan nan nan nan nan nan 54 49 nan nan nan 57 34 54 51 47 nan nan nan nan nan nan nan nan nan nan nan nan nan nan nan nan nan nan nan nan nan nan nan nan
nan nan nan nan nan nan nan nan nan nan nan nan nan nan nan nan 63 nan nan 37 30 54 45 58 55 52 nan nan nan nan nan nan nan nan nan nan nan nan nan nan nan nan nan nan nan nan nan nan nan
nan nan nan nan nan nan nan nan nan nan nan nan nan nan nan nan 59 nan nan 48 40 nan 56 59 57 53 nan nan nan nan nan nan nan nan nan nan nan nan nan nan nan nan nan nan nan nan nan nan nan
nan nan nan nan nan nan nan nan nan nan nan nan nan nan nan nan 61 nan nan nan nan nan 40 53 58 57 nan nan nan nan nan nan nan nan nan nan nan nan nan nan nan nan nan nan nan nan nan nan nan
nan nan nan nan nan nan nan nan nan nan nan nan nan nan nan nan 62 60 59 nan nan nan nan 58 63 65 nan nan nan nan nan nan nan nan nan nan nan nan nan nan nan nan nan nan nan nan nan nan nan
nan nan nan nan nan nan nan nan nan nan nan nan nan nan nan nan 61 64 72 63 62 45 nan nan 59 54 nan 57 nan nan nan nan nan nan nan nan nan nan nan nan nan nan nan nan nan nan nan nan nan
nan nan nan nan nan nan nan nan nan nan nan nan nan nan nan 48 59 61 62 nan nan 54 nan nan nan nan nan nan nan nan nan nan nan nan nan nan nan nan nan nan nan nan nan nan nan nan nan nan nan
nan nan nan nan nan nan nan nan nan nan nan nan nan nan 30 45 52 60 61 51 55 nan nan nan nan nan nan nan nan nan nan nan nan nan nan nan nan nan nan nan nan nan nan nan nan nan nan nan nan
nan nan nan nan nan nan nan nan nan nan nan nan nan 12 17 37 49 55 63 60 59 nan nan nan nan nan nan nan nan nan nan nan nan nan nan nan nan nan nan nan nan nan nan nan nan nan nan nan nan
nan nan nan nan nan nan nan nan nan nan nan nan nan 3 12 30 40 47 53 52 59 63 62 nan nan nan nan 70 55 nan nan nan nan nan nan nan nan nan nan nan nan nan nan nan nan nan nan nan nan
nan nan nan nan nan nan nan nan nan nan nan nan nan 6 10 23 33 40 50 47 50 nan 58 nan nan nan nan 59 58 49 nan nan nan nan nan nan nan nan nan nan nan nan nan nan nan nan nan nan nan
nan nan nan nan nan nan nan nan nan nan nan nan nan nan 10 15 nan nan nan 37 36 nan nan nan nan nan 56 51 54 nan nan nan nan nan nan nan nan nan nan nan nan nan nan nan nan nan nan nan nan
Wind_Direction
nan nan nan nan nan nan nan nan nan nan nan nan nan nan 252 229 nan nan 252 253 267 266 264 266 271 262 257 250 242 240 nan nan nan nan nan nan nan nan nan nan nan nan nan nan nan nan nan nan nan
nan nan nan nan nan nan nan nan nan nan nan 227 228 232 234 234 220 250 254 272 267 261 257 251 264 264 258 248 244 nan nan nan nan nan nan nan nan nan nan nan nan nan nan nan nan nan nan nan nan
nan nan nan nan nan nan nan nan nan nan nan nan 225 227 229 247 241 263 263 274 268 258 250 255 261 260 259 250 nan nan nan nan nan nan nan nan nan nan nan nan nan nan nan nan nan nan nan nan nan
nan nan nan nan nan nan nan nan nan nan nan 236 229 228 225 217 247 242 264 274 263 253 247 256 260 254 248 nan nan nan nan nan nan nan nan nan nan nan nan nan nan nan nan nan nan nan nan nan nan
nan nan nan nan nan nan nan nan nan nan 210 220 236 230 221 216 237 259 258 262 261 252 242 240 250 245 243 nan nan nan nan nan nan nan nan nan nan nan nan nan nan nan nan nan nan nan nan nan nan
nan nan nan nan nan nan nan nan nan nan nan 216 219 232 225 232 248 246 258 257 255 251 235 234 240 239 nan nan nan nan nan nan nan nan nan nan nan nan nan nan nan nan nan nan nan nan nan nan nan
nan nan nan nan nan nan nan nan nan nan nan nan 226 231 228 231 240 242 247 249 250 243 228 222 218 nan nan nan nan nan nan nan nan nan nan nan nan nan nan nan nan nan nan nan nan nan nan nan nan
nan nan nan nan nan nan nan nan nan nan nan 216 229 226 227 230 232 247 240 245 244 230 224 220 215 nan nan nan nan nan nan nan nan nan nan nan nan nan nan nan nan nan nan nan nan nan nan nan nan
251 nan nan nan nan nan nan nan nan nan nan nan 222 226 231 250 233 239 240 238 240 227 220 216 215 nan nan nan nan nan nan nan nan nan nan nan nan nan nan nan nan nan nan nan nan nan nan nan nan
nan nan nan nan nan nan nan nan nan nan nan 213 216 215 236 246 235 229 233 244 244 232 225 219 213 nan nan nan nan nan nan nan nan nan nan nan nan nan nan nan nan nan nan nan nan nan nan nan nan
nan nan nan nan nan nan nan nan nan nan nan nan nan 222 232 242 238 237 223 231 238 232 219 219 nan nan nan nan nan nan nan nan nan nan nan nan nan nan nan nan nan nan nan nan nan nan nan nan nan
nan nan nan nan nan nan nan nan nan nan nan nan nan 213 223 233 228 236 228 225 234 232 227 221 nan nan nan nan nan nan nan nan nan nan nan nan nan nan nan nan nan nan nan nan nan nan nan nan nan
nan nan nan nan nan nan nan nan nan nan nan nan nan 212 224 222 215 215 225 217 224 223 226 224 nan nan nan nan nan nan nan nan nan nan nan nan nan nan nan nan nan nan nan nan nan nan nan nan nan
nan nan nan nan nan nan nan nan nan nan nan nan nan nan nan nan nan 210 225 214 217 222 222 223 nan nan nan nan nan nan nan nan nan nan nan nan nan nan nan nan nan nan nan nan nan nan nan nan nan
nan nan nan nan nan nan nan nan nan nan nan nan nan nan nan nan nan nan 216 215 216 219 225 nan nan nan nan nan nan nan nan nan nan nan nan nan nan nan nan nan nan nan nan nan nan nan nan nan nan
nan nan nan nan nan nan nan nan nan nan nan nan nan nan nan nan nan 250 213 214 214 219 224 nan nan nan nan nan nan nan nan nan nan nan nan nan nan nan nan nan nan nan nan nan nan nan nan nan nan
nan nan nan nan nan nan nan nan nan nan nan nan nan nan 222 232 244 245 223 220 221 219 225 223 228 nan nan nan nan nan nan nan nan nan nan nan nan nan nan nan nan nan nan nan nan nan nan nan nan
nan nan nan nan nan nan nan nan nan nan nan nan nan nan nan 232 237 nan nan 216 220 220 222 225 223 nan nan nan nan nan nan nan nan nan nan nan nan nan nan nan nan nan nan nan nan nan nan nan nan
nan nan nan nan nan nan nan nan nan nan nan nan nan nan nan 224 228 nan nan nan 218 219 215 224 226 nan nan nan nan nan nan nan nan nan nan nan nan nan nan nan nan nan nan nan nan nan nan nan nan
nan nan nan nan nan nan nan nan nan nan nan nan nan nan nan nan 226 nan nan 226 196 225 229 228 229 229 nan nan nan nan nan nan nan nan nan nan nan nan nan nan nan nan nan nan nan nan nan nan nan
nan nan nan nan nan nan nan nan nan nan nan nan nan nan nan nan 227 nan nan 250 250 nan 226 228 231 234 nan nan nan nan nan nan nan nan nan nan nan nan nan nan nan nan nan nan nan nan nan nan nan
nan nan nan nan nan nan nan nan nan nan nan nan nan nan nan nan 226 nan nan nan nan nan 222 232 234 236 nan nan nan nan nan nan nan nan nan nan nan nan nan nan nan nan nan nan nan nan nan nan nan
nan nan nan nan nan nan nan nan nan nan nan nan nan nan nan nan 231 238 239 nan nan nan nan 218 233 238 nan nan nan nan nan nan nan nan nan nan nan nan nan nan nan nan nan nan nan nan nan nan nan
nan nan nan nan nan nan nan nan nan nan nan nan nan nan nan nan 218 229 238 242 239 242 nan nan 226 219 nan 251 nan nan nan nan nan nan nan nan nan nan nan nan nan nan nan nan nan nan nan nan nan
nan nan nan nan nan nan nan nan nan nan nan nan nan nan nan 216 219 229 238 nan nan 260 nan nan nan nan nan nan nan nan nan nan nan nan nan nan nan nan nan nan nan nan nan nan nan nan nan nan nan
nan nan nan nan nan nan nan nan nan nan nan nan nan nan 240 216 214 220 231 241 251 nan nan nan nan nan nan nan nan nan nan nan nan nan nan nan nan nan nan nan nan nan nan nan nan nan nan nan nan
nan nan nan nan nan nan nan nan nan nan nan nan nan 263 238 222 214 219 228 229 240 nan nan nan nan nan nan nan nan nan nan nan nan nan nan nan nan nan nan nan nan nan nan nan nan nan nan nan nan
nan nan nan nan nan nan nan nan nan nan nan nan nan 221 215 224 219 216 226 228 230 239 244 nan nan nan nan 269 272 nan nan nan nan nan nan nan nan nan nan nan nan nan nan nan nan nan nan nan nan
nan nan nan nan nan nan nan nan nan nan nan nan nan 257 209 240 227 218 223 232 227 nan 242 nan nan nan nan 267 274 266 nan nan nan nan nan nan nan nan nan nan nan nan nan nan nan nan nan nan nan
nan nan nan nan nan nan nan nan nan nan nan nan nan nan 276 252 nan nan nan 235 228 nan nan nan nan nan 263 267 265 nan nan nan nan nan nan nan nan nan nan nan nan nan nan nan nan nan nan nan nan